Weather in Berezovka

Russia / Chuvash Republic     55°12′43″N   46°48′17″E
temp.,
°C
wind,
m/s
gust,
m/s
humid.,
%
clouds,
%
prec.,
mm/h
press.,
hPa
HPBL,
m
14 june, mon
mon1400:00+15sse279755 0.0 1012135
03:00+14ssw239896 0.0 101366
06:00+17ssw2494100 0.0 1014182
09:00+22wsw346594 0.0 1015843
12:00+25wsw3453100 0.0 10151483
15:00+24sw2364100 0.3 10151308
18:00+20ssw239081 1.6 1015104
21:00+17ssw11955 1.8 101512
15 june, tue
tue1500:00+15ssw1297100 0.0 101519
03:00+15ssw119676 0.1 101511
06:00+17s129314 0.1 1015129
09:00+21s227977 0.4 1015506
12:00+22ssw247971 2.9 1014846
15:00+21s2381100 3.6 1014440
18:00+21sse247980 0.0 1013364
21:00+17ese229283 0.0 101235
16 june, wed
wed1600:00+18ese3978100 0.0 1011194
03:00+15ene288047 0.0 1010141
06:00+18ne397776 0.0 1008308
09:00+24ene23605 0.0 1007787
12:00+28nne11485 0.0 10061439
15:00+28nw44497 0.0 10061976
18:00+22nw5108477 1.0 1007550
21:00+18nnw4119152 1.0 1010706
17 june, thu
thu1700:00+16nnw411941 0.0 1013591
03:00+12nnw311850 0.0 1015284
06:00+14nnw3107098 0.0 1017367
09:00+19nnw47440 0.0 10181417
12:00+22nw463762 0.0 10182519
15:00+20nw464597 0.0 10191957
18:00+19wnw475955 0.0 1020934
21:00+16nnw26635 0.0 1021192
18 june, fri
fri1800:00+14nnw29690 0.0 1022260
03:00+10nnw29790 0.0 1024167
06:00+14n3106530 0.0 1026357
09:00+19n464293 0.0 10261303
12:00+21n45375 0.0 10261728
15:00+22n34395 0.0 10261760
18:00+20wnw24595 0.0 1026306
21:00+15w228256 0.0 102717